Location: Izdebno
(52.6670°N, 16.2170°E)
Time: 23:13:24
(UTC+01:00)

BlueWalker 3 - Visible Passes

Search period start: 29 November 2023 00:00
Search period end: 09 December 2023 00:00
Orbit: 489 x 504 km, 53.2° (Epoch: 29 November)

Date Brightness Start Highest point End Pass type
(mag) Time Alt. Az. Time Alt. Az. Time Alt. Az.
29 Nov 3.5 04:32:45 34° E 04:32:45 34° E 04:35:02 10° E visible
29 Nov 2.5 06:07:19 22° W 06:09:27 45° SSW 06:13:07 10° SE visible
30 Nov 4.5 04:11:09 20° E 04:11:09 20° E 04:12:28 10° E visible
30 Nov 2.4 05:45:43 33° WSW 05:46:53 45° SSW 05:50:32 10° SE visible
01 Dec 5.2 03:49:34 12° E 03:49:34 12° E 03:49:52 10° E visible
01 Dec 2.3 05:24:08 45° SW 05:24:17 45° SSW 05:27:57 10° SE visible
01 Dec 4.2 07:00:18 10° WSW 07:01:55 12° SW 07:03:32 10° SSW visible
02 Dec 2.9 05:02:34 38° SSE 05:02:34 38° SSE 05:05:21 10° SE visible
02 Dec 4.2 06:37:39 10° WSW 06:39:19 12° SW 06:40:58 10° SSW visible
03 Dec 3.9 04:41:03 23° SE 04:41:03 23° SE 04:42:44 10° SE visible
03 Dec 4.1 06:15:37 12° WSW 06:16:41 13° SW 06:18:24 10° SSW visible
04 Dec 4.8 04:19:35 13° SE 04:19:35 13° SE 04:20:05 10° SE visible
04 Dec 4.1 05:54:09 13° SW 05:54:09 13° SW 05:55:48 10° SSW visible
05 Dec 4.4 05:32:44 11° SSW 05:32:44 11° SSW 05:33:11 10° SSW visible
